Preview of NWS' New Version of Forecast
This preview is not operational and should not be used for support decisions.

Regional Weather Roundup (RWR)

Issued by National Weather Service (NWS)

                            
000
ASUS43 KLSX 191307
RWRMO 

WEATHER SUMMARY FOR MISSOURI
NATIONAL WEATHER SERVICE SPRINGFIELD MO
800 AM CDT FRI APR 19 2019

NOTE: "FAIR" INDICATES FEW OR NO CLOUDS BELOW 12,000 FEET WITH NO
       SIGNIFICANT WEATHER AND/OR OBSTRUCTIONS TO VISIBILITY.
       CURRENT SKY AND/OR WEATHER CONDITIONS ARE NOT AVAILABLE FOR
       CHILLICOTHE AND FARMINGTON.

MOZ001>031-035>038-043-044-053-054-191400-
...NORTHERN AND WESTERN MISSOURI...
  
CITY           SKY/WX    TMP DP  RH WIND       PRES   REMARKS
KANSAS CTY INT SUNNY     45  38  76 N13       30.02R                  
KANSAS C DTWN  SUNNY     47  38  71 N13       30.02R                  
LEE'S SUMMIT   SUNNY     45  38  76 N13       30.01R                  
ST JOSEPH      MOSUNNY   45  40  82 N13       30.05R                  
CHILLICOTHE      N/A     46  38  73 N8        30.01R                  
KIRKSVILLE     SUNNY     44  38  79 N17G25    29.96R                  
     
$$
MOZ066>068-077>081-088>096-101>105-191400-
...SOUTHWEST MISSOURI...
  
CITY           SKY/WX    TMP DP  RH WIND       PRES   REMARKS
SPRINGFIELD    MOSUNNY   46  38  73 N20G29    29.91R                  
JOPLIN         MOSUNNY   47  40  76 N13G22    29.99R                  
BRANSON        PTSUNNY   45  37  76 NW14G20   29.90R                  
               
$$
MOZ032>034-039>042-045>050-055>058-069>072-191400-
...CENTRAL MISSOURI...  
  
CITY           SKY/WX    TMP DP  RH WIND       PRES   REMARKS
COLUMBIA       CLOUDY    45  35  68 N16G25    29.91R                  
JEFFERSON CITY PTSUNNY   47  35  63 N13G24    29.92R                  
ROLLA          CLOUDY    44  35  70 NW16G29   29.87R                  
SEDALIA        PTSUNNY   44  41  89 N15       29.96R                  
WHITEMAN AFB   MOSUNNY   45  41  86 N12       29.93R                  
WARRENSBURG    SUNNY     45  37  76 NW9G16    29.98R                  
OSAGE BEACH    PTSUNNY   47  36  65 N13G21    29.92R                  
               
$$
MOZ051-052-059>065-191400-
...EAST CENTRAL MISSOURI...
  
CITY           SKY/WX    TMP DP  RH WIND       PRES   REMARKS
ST LOUIS INTL  CLOUDY    46  38  73 N18G38    29.81R                  
SPIRIT OF STL  LGT RAIN  47  40  76 N12G20    29.82R                  
ST CHARLES     CLOUDY    47  39  74 N15       29.82R                  
                   
$$
MOZ072>076-082>087-097>100-106>115-191400-
...SOUTH CENTRAL AND SOUTHEAST MISSOURI...
  
CITY           SKY/WX    TMP DP  RH WIND       PRES   REMARKS
CAPE GIRARDEAU CLOUDY    46  41  82 N15G25    29.74R                  
FARMINGTON     LGT RAIN  44  40  85 N10       29.80R                  
POPLAR BLUFF   CLOUDY    47  41  80 N12G22    29.76R                  
WEST PLAINS    CLOUDY    47  36  65 N15G25    29.83R                  
                                       
$$